星链-33902(STARLINK-33902)

导读 | 豆包AI

STARLINK-33902是美国SpaceX星链星座的卫星,于2025年10月8日发射。作为星链星座中低轨卫星互联网组网的一员,它依托近地轨道部署,承载全球覆盖高速互联网服务的任务,为偏远地区、海上及航空场景提供低成本网络接入,是SpaceX推进星链规模组网、完善全球卫星互联网布局的组成部分。

Basic Information
目录编号:
65920
目录名称:
STARLINK-33902
国际标识:
2025-225L
轨道中心:
EARTH
卫星名称:
星链-33902
卫星全名:
星链-33902(STARLINK-33902)
卫星状态:
在轨 (已飞行203 天)
发射日期:
2025-10-08 UTC
国别 :
美国 (US)
星等 :
--
Orbit Information
数据来源 国际轨道数据 AOE轨道数据
星历时间 2026-04-29T05:53:43+0800
10小时前
查看轨道信息
2026-04-27T12:00:00+0800
2天前
查看轨道信息
半长轴 6853.367km 6853.294km
偏心率 0.0001393 0.0001132
轨道倾角 53.158° 53.160°
近地点辐角 83.209° 73.612°
升交点赤经 292.669° 300.778°
平近点角 276.906° 25.012°
近地点 474.275km 474.381km
远地点 476.185km 475.933km
周期 94.106分钟 94.104分钟
每日圈数 15.301951 15.302196
Detailed Information
固有亮度:
5
最大亮度:
2.5
卫星平台:
Starlink V1.0
覆盖范围:
全球
运营商:
太空探索技术公司
运营商所在国:
美国
制造商(研发单位):
太空探索技术公司
制造商所在国:
美国
使用方式:
暂无
Satellite Introduction
Starlink 计划是 SpaceX 推出的全球卫星互联网项目,通过发射低轨道卫星,为全球尤其是偏远地区提供高速、低延迟的互联网服务。自 2019 年起,Starlink 已部署数千颗卫星,旨在缩小全球数字鸿沟,推动互联网普及。该项目还为军事、航空等行业提供通信支持,带来广泛经济效益。
2D Orbit Map
3D Orbit Map
Orbit Altitude Analysis Chart
Orbit Inclination Analysis Chart
Orbit Comprehensive Analysis Chart
View Comprehensive Chart